RYR58JL EGSS-LFMP

Flight info

Callsign RYR58JL
Flight time 1h 39m
Altitude 37000
Route NUGBO M183 SILVA Q41 COWLY DCT GWC UN859 SOPIL DCT BALAN DCT EVPOK DCT NARAK DCT GAI G36 ORBIL
Aircraft B738/M-SDE2E3FGHIRWXY/LB1

Departure

Time 2026-05-07 11:46
Airport London Stansted Airport (EGSS)

Arrival

Time 2026-05-07 13:26
Airport Perpignan-Rivesaltes (Llabanère) Airport (LFMP)
Time Latitude Longitude Altitude Speed Heading
2026-05-07 11:24 51.89374 0.25997 358 ft 0 kts 223°
2026-05-07 11:31 51.89385 0.26011 351 ft 4 kts 224°
2026-05-07 11:32 51.89399 0.26084 354 ft 4 kts 302°
2026-05-07 11:32 51.89391 0.26101 351 ft 1 kts 313°
2026-05-07 11:32 51.89390 0.26102 354 ft 0 kts 313°
2026-05-07 11:38 51.89391 0.26101 351 ft 0 kts 313°
2026-05-07 11:38 51.89397 0.26091 358 ft 4 kts 313°
2026-05-07 11:38 51.89438 0.26019 360 ft 11 kts 313°
2026-05-07 11:38 51.89492 0.25926 357 ft 11 kts 313°
2026-05-07 11:39 51.89530 0.25822 355 ft 11 kts 263°
2026-05-07 11:39 51.89476 0.25727 358 ft 14 kts 223°
2026-05-07 11:39 51.89391 0.25602 356 ft 19 kts 223°
2026-05-07 11:39 51.89284 0.25439 351 ft 22 kts 223°
2026-05-07 11:40 51.89165 0.25261 353 ft 23 kts 223°
2026-05-07 11:40 51.89048 0.25086 351 ft 23 kts 223°
2026-05-07 11:40 51.88935 0.24915 353 ft 22 kts 223°
2026-05-07 11:40 51.88824 0.24749 353 ft 21 kts 223°
2026-05-07 11:41 51.88716 0.24588 349 ft 22 kts 223°
2026-05-07 11:41 51.88608 0.24425 351 ft 21 kts 223°
2026-05-07 11:41 51.88503 0.24267 344 ft 20 kts 223°
2026-05-07 11:41 51.88401 0.24114 343 ft 20 kts 223°
2026-05-07 11:42 51.88302 0.23965 345 ft 19 kts 223°
2026-05-07 11:42 51.88207 0.23821 347 ft 19 kts 223°
2026-05-07 11:42 51.88090 0.23648 337 ft 25 kts 222°
2026-05-07 11:42 51.87951 0.23440 334 ft 29 kts 223°
2026-05-07 11:43 51.87807 0.23225 339 ft 26 kts 221°
2026-05-07 11:43 51.87727 0.23066 337 ft 17 kts 269°
2026-05-07 11:43 51.87794 0.22924 335 ft 16 kts 314°
2026-05-07 11:43 51.87863 0.22804 331 ft 7 kts 313°
2026-05-07 11:44 51.87870 0.22792 334 ft 0 kts 313°
2026-05-07 11:44 51.87875 0.22782 331 ft 5 kts 313°
2026-05-07 11:44 51.87921 0.22703 333 ft 11 kts 313°
2026-05-07 11:44 51.87966 0.22674 333 ft 6 kts 37°
2026-05-07 11:45 51.87973 0.22684 331 ft 1 kts 45°
2026-05-07 11:45 51.87974 0.22685 331 ft 0 kts 44°
2026-05-07 11:45 51.87974 0.22686 333 ft 1 kts 44°
2026-05-07 11:46 51.88097 0.22876 327 ft 63 kts 43°
2026-05-07 11:46 51.88620 0.23659 340 ft 139 kts 43°
2026-05-07 11:46 51.89425 0.24853 759 ft 168 kts 44°
2026-05-07 11:46 51.90333 0.26209 1606 ft 175 kts 45°
2026-05-07 11:47 51.91197 0.27518 2691 ft 171 kts 45°
2026-05-07 11:47 51.92148 0.28943 3099 ft 204 kts 41°
2026-05-07 11:47 51.93495 0.30062 3343 ft 234 kts 12°
2026-05-07 11:47 51.95156 0.29878 3959 ft 248 kts 339°
2026-05-07 11:48 51.96510 0.28269 4917 ft 247 kts 305°
2026-05-07 11:48 51.97193 0.25655 5533 ft 261 kts 279°
2026-05-07 11:48 51.97489 0.22697 6316 ft 268 kts 276°
2026-05-07 11:48 51.97723 0.19686 7231 ft 271 kts 276°
2026-05-07 11:49 51.97960 0.16628 8087 ft 275 kts 276°
2026-05-07 11:49 51.98229 0.13525 8960 ft 279 kts 277°
2026-05-07 11:49 51.98536 0.10406 9803 ft 282 kts 278°
2026-05-07 11:49 51.98868 0.07168 10219 ft 303 kts 276°
2026-05-07 11:50 51.98774 0.03618 10412 ft 328 kts 257°
2026-05-07 11:50 51.98234 -0.00099 10804 ft 345 kts 256°
2026-05-07 11:50 51.97703 -0.03938 11513 ft 350 kts 257°
2026-05-07 11:50 51.97191 -0.07828 12326 ft 353 kts 257°
2026-05-07 11:51 51.96668 -0.11696 13062 ft 357 kts 253°
2026-05-07 11:51 51.95624 -0.15359 13800 ft 359 kts 236°
2026-05-07 11:51 51.94153 -0.18650 14613 ft 361 kts 232°
2026-05-07 11:51 51.92595 -0.21894 15321 ft 365 kts 231°
2026-05-07 11:52 51.91013 -0.25134 15998 ft 368 kts 231°
2026-05-07 11:52 51.89414 -0.28397 16688 ft 371 kts 231°
2026-05-07 11:52 51.87795 -0.31685 17326 ft 375 kts 231°
2026-05-07 11:52 51.86159 -0.34998 17988 ft 378 kts 231°
2026-05-07 11:53 51.84518 -0.38308 18809 ft 375 kts 230°
2026-05-07 11:53 51.82617 -0.41192 19458 ft 377 kts 213°
2026-05-07 11:53 51.80229 -0.42963 20037 ft 381 kts 195°
2026-05-07 11:53 51.77625 -0.43816 20638 ft 384 kts 191°
2026-05-07 11:54 51.75018 -0.44652 21140 ft 388 kts 192°
2026-05-07 11:54 51.72358 -0.45555 21668 ft 392 kts 192°
2026-05-07 11:54 51.69681 -0.46489 22206 ft 395 kts 192°
2026-05-07 11:54 51.66982 -0.47441 22722 ft 398 kts 192°
2026-05-07 11:55 51.64256 -0.48404 23211 ft 402 kts 192°
2026-05-07 11:55 51.61516 -0.49372 23685 ft 405 kts 192°
2026-05-07 11:55 51.58748 -0.50348 24140 ft 408 kts 192°
2026-05-07 11:55 51.55964 -0.51328 24586 ft 411 kts 192°
2026-05-07 11:56 51.53156 -0.52314 25018 ft 414 kts 192°
2026-05-07 11:56 51.50324 -0.53307 25433 ft 418 kts 192°
2026-05-07 11:56 51.47497 -0.54297 25834 ft 421 kts 192°
2026-05-07 11:56 51.44628 -0.55300 26252 ft 423 kts 192°
2026-05-07 11:57 51.41738 -0.56309 26651 ft 425 kts 192°
2026-05-07 11:57 51.38836 -0.57322 27035 ft 428 kts 192°
2026-05-07 11:57 51.35920 -0.58338 27383 ft 431 kts 192°
2026-05-07 11:57 51.32982 -0.59360 27712 ft 433 kts 192°
2026-05-07 11:58 51.30026 -0.60387 28070 ft 435 kts 192°
2026-05-07 11:58 51.27056 -0.61418 28428 ft 437 kts 192°
2026-05-07 11:58 51.24075 -0.62452 28765 ft 439 kts 192°
2026-05-07 11:58 51.21078 -0.63490 29096 ft 441 kts 192°
2026-05-07 11:59 51.18102 -0.64519 29383 ft 444 kts 192°
2026-05-07 11:59 51.15072 -0.65565 29663 ft 446 kts 192°
2026-05-07 11:59 51.12033 -0.66612 29983 ft 447 kts 192°
2026-05-07 11:59 51.08991 -0.67658 30394 ft 446 kts 192°
2026-05-07 12:00 51.05955 -0.68701 30832 ft 444 kts 192°
2026-05-07 12:00 51.02944 -0.69734 31250 ft 442 kts 192°
2026-05-07 12:00 50.99934 -0.70767 31639 ft 441 kts 192°
2026-05-07 12:00 50.96934 -0.71796 32003 ft 440 kts 192°
2026-05-07 12:01 50.93939 -0.72821 32334 ft 440 kts 192°
2026-05-07 12:01 50.90946 -0.73843 32672 ft 439 kts 192°
2026-05-07 12:01 50.87932 -0.74586 33012 ft 438 kts 181°
2026-05-07 12:01 50.84908 -0.74061 33338 ft 438 kts 166°
2026-05-07 12:02 50.82057 -0.72381 33661 ft 438 kts 152°
2026-05-07 12:02 50.79457 -0.69857 33965 ft 438 kts 148°
2026-05-07 12:02 50.76945 -0.67239 34257 ft 438 kts 147°
2026-05-07 12:02 50.74405 -0.64566 34521 ft 438 kts 147°
2026-05-07 12:03 50.71861 -0.61905 34753 ft 439 kts 147°
2026-05-07 12:03 50.69301 -0.59256 35009 ft 439 kts 148°
2026-05-07 12:03 50.66736 -0.56631 35284 ft 439 kts 148°
2026-05-07 12:03 50.64158 -0.54012 35501 ft 439 kts 148°
2026-05-07 12:04 50.61611 -0.51439 35723 ft 440 kts 148°
2026-05-07 12:04 50.59026 -0.48833 35965 ft 441 kts 148°
2026-05-07 12:04 50.56446 -0.46233 36218 ft 440 kts 148°
2026-05-07 12:04 50.53878 -0.43649 36409 ft 441 kts 148°
2026-05-07 12:05 50.52160 -0.41922 36515 ft 442 kts 148°
2026-05-07 12:05 50.49568 -0.39317 36720 ft 442 kts 148°
2026-05-07 12:05 50.46973 -0.36714 37001 ft 440 kts 148°
2026-05-07 12:06 50.41771 -0.31510 37078 ft 445 kts 149°
2026-05-07 12:06 50.36554 -0.26301 37069 ft 441 kts 149°
2026-05-07 12:07 50.31430 -0.21198 37068 ft 433 kts 149°
2026-05-07 12:07 50.26352 -0.16156 37080 ft 432 kts 149°
2026-05-07 12:08 50.21314 -0.11162 37071 ft 431 kts 149°
2026-05-07 12:08 50.16242 -0.06153 37079 ft 431 kts 149°
2026-05-07 12:09 50.11143 -0.01198 37069 ft 431 kts 154°
2026-05-07 12:09 50.05544 0.01934 37083 ft 427 kts 168°
2026-05-07 12:10 49.99784 0.04093 37081 ft 429 kts 168°
2026-05-07 12:10 49.93960 0.06307 37079 ft 432 kts 168°
2026-05-07 12:11 49.88096 0.08589 37075 ft 434 kts 168°
2026-05-07 12:11 49.82222 0.10886 37068 ft 436 kts 168°
2026-05-07 12:12 49.76326 0.13183 37064 ft 437 kts 168°
2026-05-07 12:12 49.70452 0.15465 37065 ft 437 kts 168°
2026-05-07 12:13 49.64550 0.17791 37074 ft 437 kts 167°
2026-05-07 12:13 49.58665 0.20189 37073 ft 436 kts 167°
2026-05-07 12:14 49.52821 0.22564 37076 ft 436 kts 167°
2026-05-07 12:14 49.46952 0.24936 37067 ft 435 kts 167°
2026-05-07 12:15 49.41099 0.27290 37061 ft 434 kts 167°
2026-05-07 12:15 49.35256 0.29634 37052 ft 433 kts 167°
2026-05-07 12:16 49.29430 0.31978 37047 ft 432 kts 167°
2026-05-07 12:16 49.23630 0.34412 37051 ft 431 kts 167°
2026-05-07 12:17 49.17841 0.36861 37056 ft 431 kts 167°
2026-05-07 12:17 49.12094 0.39280 37056 ft 431 kts 167°
2026-05-07 12:18 49.06302 0.41704 37059 ft 431 kts 167°
2026-05-07 12:18 49.00518 0.44115 37063 ft 431 kts 167°
2026-05-07 12:19 48.94716 0.46531 37063 ft 432 kts 167°
2026-05-07 12:19 48.88905 0.48941 37057 ft 433 kts 167°
2026-05-07 12:20 48.83082 0.51354 37064 ft 433 kts 167°
2026-05-07 12:20 48.77279 0.53735 37067 ft 434 kts 168°
2026-05-07 12:21 48.71433 0.56023 37065 ft 434 kts 168°
2026-05-07 12:21 48.65532 0.58311 37066 ft 434 kts 168°
2026-05-07 12:22 48.59678 0.60589 37064 ft 434 kts 168°
2026-05-07 12:22 48.53859 0.62854 37064 ft 434 kts 168°
2026-05-07 12:23 48.47988 0.65183 37057 ft 435 kts 167°
2026-05-07 12:23 48.42135 0.67576 37051 ft 435 kts 167°
2026-05-07 12:24 48.36327 0.69942 37055 ft 434 kts 167°
2026-05-07 12:24 48.30492 0.72304 37053 ft 434 kts 167°
2026-05-07 12:25 48.24671 0.74652 37056 ft 433 kts 168°
2026-05-07 12:25 48.18846 0.76955 37056 ft 432 kts 168°
2026-05-07 12:26 48.13025 0.79237 37056 ft 431 kts 168°
2026-05-07 12:26 48.07221 0.81513 37056 ft 431 kts 168°
2026-05-07 12:27 48.01446 0.83775 37057 ft 431 kts 168°
2026-05-07 12:27 47.95638 0.86048 37058 ft 431 kts 168°
2026-05-07 12:28 47.89825 0.88316 37050 ft 432 kts 168°
2026-05-07 12:28 47.83994 0.90582 37045 ft 432 kts 168°
2026-05-07 12:29 47.78207 0.92830 37048 ft 432 kts 168°
2026-05-07 12:29 47.72376 0.95082 37042 ft 433 kts 168°
2026-05-07 12:30 47.66535 0.97333 37047 ft 433 kts 168°
2026-05-07 12:30 47.60697 0.99579 37049 ft 433 kts 168°
2026-05-07 12:31 47.54862 1.01821 37047 ft 433 kts 168°
2026-05-07 12:31 47.49068 1.04041 37049 ft 433 kts 168°
2026-05-07 12:32 47.43211 1.06150 37036 ft 431 kts 174°
2026-05-07 12:32 47.37261 1.06425 37049 ft 427 kts 184°
2026-05-07 12:33 47.28345 1.06092 37046 ft 427 kts 184°
2026-05-07 12:33 47.22434 1.05937 37043 ft 427 kts 184°
2026-05-07 12:34 47.16465 1.05806 37044 ft 427 kts 184°
2026-05-07 12:34 47.10554 1.05676 37049 ft 427 kts 184°
2026-05-07 12:35 47.04591 1.05543 37047 ft 427 kts 184°
2026-05-07 12:35 46.98644 1.05364 37046 ft 426 kts 185°
2026-05-07 12:36 46.92715 1.05090 37052 ft 426 kts 185°
2026-05-07 12:36 46.86823 1.04819 37043 ft 426 kts 185°
2026-05-07 12:37 46.80889 1.04559 37045 ft 425 kts 185°
2026-05-07 12:37 46.74962 1.04303 37034 ft 425 kts 185°
2026-05-07 12:38 46.69044 1.04048 37035 ft 425 kts 185°
2026-05-07 12:38 46.63160 1.03795 37041 ft 425 kts 185°
2026-05-07 12:39 46.57240 1.03541 37036 ft 425 kts 185°
2026-05-07 12:39 46.51326 1.03488 37021 ft 427 kts 178°
2026-05-07 12:40 46.45450 1.05213 37031 ft 431 kts 170°
2026-05-07 12:40 46.39654 1.07235 37027 ft 431 kts 170°
2026-05-07 12:41 46.33816 1.09234 37023 ft 430 kts 171°
2026-05-07 12:41 46.27978 1.11191 37028 ft 430 kts 171°
2026-05-07 12:42 46.22168 1.13122 37018 ft 430 kts 171°
2026-05-07 12:42 46.16315 1.15062 37022 ft 430 kts 171°
2026-05-07 12:43 46.10495 1.16988 37016 ft 430 kts 171°
2026-05-07 12:43 46.04642 1.18918 37029 ft 430 kts 171°
2026-05-07 12:44 45.98829 1.20832 37016 ft 431 kts 171°
2026-05-07 12:44 45.92990 1.22753 37022 ft 430 kts 171°
2026-05-07 12:45 45.88119 1.24351 37016 ft 430 kts 171°
2026-05-07 12:45 45.82283 1.26261 37017 ft 430 kts 171°
2026-05-07 12:46 45.75508 1.28474 37017 ft 429 kts 171°
2026-05-07 12:46 45.70663 1.30054 37017 ft 429 kts 171°
2026-05-07 12:47 45.64845 1.31947 37018 ft 428 kts 171°
2026-05-07 12:47 45.59029 1.33835 37018 ft 428 kts 171°
2026-05-07 12:48 45.53211 1.35719 37020 ft 428 kts 171°
2026-05-07 12:48 45.47387 1.37603 37012 ft 428 kts 171°
2026-05-07 12:49 45.41573 1.39478 37009 ft 428 kts 171°
2026-05-07 12:49 45.35798 1.41337 37008 ft 428 kts 171°
2026-05-07 12:50 45.29980 1.43207 37012 ft 427 kts 171°
2026-05-07 12:50 45.24173 1.45070 37003 ft 427 kts 171°
2026-05-07 12:51 45.18370 1.46927 37013 ft 427 kts 171°
2026-05-07 12:51 45.12736 1.48727 36999 ft 428 kts 171°
2026-05-07 12:52 45.06970 1.50564 37003 ft 427 kts 171°
2026-05-07 12:52 45.01161 1.52413 36998 ft 427 kts 171°
2026-05-07 12:53 44.95370 1.54251 36999 ft 427 kts 171°
2026-05-07 12:53 44.89573 1.56087 37008 ft 426 kts 171°
2026-05-07 12:54 44.83791 1.57918 37006 ft 426 kts 171°
2026-05-07 12:54 44.78000 1.59743 37011 ft 425 kts 171°
2026-05-07 12:55 44.72853 1.61362 36996 ft 426 kts 171°
2026-05-07 12:55 44.69942 1.62275 36571 ft 430 kts 171°
2026-05-07 12:55 44.67026 1.63192 36215 ft 428 kts 171°
2026-05-07 12:56 44.64114 1.64107 35844 ft 430 kts 171°
2026-05-07 12:56 44.61184 1.65027 35475 ft 432 kts 171°
2026-05-07 12:56 44.58275 1.65937 35085 ft 434 kts 172°
2026-05-07 12:56 44.55317 1.66861 34692 ft 436 kts 172°
2026-05-07 12:57 44.52348 1.67789 34295 ft 438 kts 172°
2026-05-07 12:57 44.49366 1.68721 33905 ft 439 kts 172°
2026-05-07 12:57 44.46378 1.69651 33507 ft 440 kts 172°
2026-05-07 12:57 44.43390 1.70582 33108 ft 440 kts 172°
2026-05-07 12:58 44.40388 1.71517 32707 ft 440 kts 172°
2026-05-07 12:58 44.37394 1.72449 32310 ft 440 kts 171°
2026-05-07 12:58 44.34404 1.73379 31905 ft 439 kts 171°
2026-05-07 12:58 44.31456 1.74293 31513 ft 438 kts 171°
2026-05-07 12:59 44.28485 1.75178 31109 ft 434 kts 173°
2026-05-07 12:59 44.25513 1.75898 30705 ft 430 kts 174°
2026-05-07 12:59 44.22562 1.76529 30302 ft 427 kts 175°
2026-05-07 12:59 44.19636 1.77135 29905 ft 423 kts 175°
2026-05-07 13:00 44.16731 1.77745 29503 ft 420 kts 175°
2026-05-07 13:00 44.13844 1.78362 29109 ft 417 kts 174°
2026-05-07 13:00 44.10985 1.78983 28733 ft 414 kts 174°
2026-05-07 13:00 44.08183 1.79597 28364 ft 411 kts 174°
2026-05-07 13:01 44.05366 1.80216 27989 ft 408 kts 174°
2026-05-07 13:01 44.02563 1.80832 27610 ft 406 kts 174°
2026-05-07 13:01 43.99778 1.81442 27239 ft 404 kts 174°
2026-05-07 13:01 43.97022 1.82166 26853 ft 404 kts 167°
2026-05-07 13:02 43.94370 1.83476 26486 ft 405 kts 159°
2026-05-07 13:02 43.91889 1.85362 26114 ft 407 kts 151°
2026-05-07 13:02 43.89512 1.87473 25744 ft 405 kts 150°
2026-05-07 13:02 43.87153 1.89603 25359 ft 404 kts 150°
2026-05-07 13:03 43.84829 1.91703 24993 ft 403 kts 150°
2026-05-07 13:03 43.82480 1.93814 24622 ft 401 kts 150°
2026-05-07 13:03 43.80141 1.95903 24251 ft 399 kts 150°
2026-05-07 13:03 43.77808 1.97975 23878 ft 397 kts 150°
2026-05-07 13:04 43.75485 2.00031 23499 ft 395 kts 150°
2026-05-07 13:04 43.73174 2.02069 23128 ft 393 kts 150°
2026-05-07 13:04 43.70871 2.04097 22742 ft 391 kts 150°
2026-05-07 13:04 43.68580 2.06112 22382 ft 388 kts 150°
2026-05-07 13:05 43.66314 2.08105 22031 ft 384 kts 150°
2026-05-07 13:05 43.64067 2.10079 21680 ft 380 kts 150°
2026-05-07 13:05 43.61842 2.12032 21328 ft 377 kts 150°
2026-05-07 13:05 43.59659 2.13945 20982 ft 374 kts 150°
2026-05-07 13:06 43.57469 2.15863 20630 ft 372 kts 150°
2026-05-07 13:06 43.55294 2.17768 20284 ft 370 kts 149°
2026-05-07 13:06 43.53122 2.19666 19931 ft 368 kts 149°
2026-05-07 13:06 43.50969 2.21547 19581 ft 366 kts 149°
2026-05-07 13:07 43.48822 2.23421 19228 ft 364 kts 149°
2026-05-07 13:07 43.46684 2.25287 18880 ft 362 kts 149°
2026-05-07 13:07 43.44555 2.27142 18535 ft 361 kts 149°
2026-05-07 13:07 43.42465 2.28963 18187 ft 358 kts 149°
2026-05-07 13:08 43.40373 2.30784 17841 ft 353 kts 149°
2026-05-07 13:08 43.38309 2.32578 17479 ft 348 kts 149°
2026-05-07 13:08 43.36267 2.34352 17036 ft 346 kts 149°
2026-05-07 13:08 43.34232 2.36118 16571 ft 344 kts 149°
2026-05-07 13:09 43.32212 2.37869 16129 ft 343 kts 149°
2026-05-07 13:09 43.30196 2.39615 15685 ft 342 kts 149°
2026-05-07 13:09 43.28187 2.41356 15233 ft 341 kts 149°
2026-05-07 13:09 43.26187 2.43087 14788 ft 339 kts 149°
2026-05-07 13:10 43.24194 2.44813 14369 ft 337 kts 149°
2026-05-07 13:10 43.22214 2.46524 13966 ft 335 kts 149°
2026-05-07 13:10 43.20248 2.48222 13565 ft 333 kts 149°
2026-05-07 13:10 43.18421 2.50163 13135 ft 333 kts 132°
2026-05-07 13:11 43.17026 2.52632 12769 ft 331 kts 128°
2026-05-07 13:11 43.15651 2.55153 12421 ft 327 kts 128°
2026-05-07 13:11 43.14294 2.57634 12075 ft 324 kts 128°
2026-05-07 13:11 43.12939 2.60094 11702 ft 321 kts 128°
2026-05-07 13:12 43.11592 2.62525 11356 ft 319 kts 128°
2026-05-07 13:12 43.10250 2.64936 11017 ft 316 kts 128°
2026-05-07 13:12 43.08935 2.67291 10661 ft 314 kts 128°
2026-05-07 13:12 43.07612 2.69657 10310 ft 312 kts 128°
2026-05-07 13:13 43.06295 2.72006 9957 ft 310 kts 128°
2026-05-07 13:13 43.04986 2.74338 9614 ft 308 kts 128°
2026-05-07 13:13 43.03685 2.76654 9272 ft 306 kts 128°
2026-05-07 13:13 43.02391 2.78955 8916 ft 304 kts 128°
2026-05-07 13:14 43.01105 2.81241 8587 ft 302 kts 128°
2026-05-07 13:14 42.99827 2.83510 8274 ft 299 kts 128°
2026-05-07 13:14 42.98575 2.85735 7936 ft 290 kts 128°
2026-05-07 13:14 42.97357 2.87893 7597 ft 285 kts 128°
2026-05-07 13:15 42.96147 2.90035 7280 ft 284 kts 128°
2026-05-07 13:15 42.94958 2.92143 6967 ft 282 kts 128°
2026-05-07 13:15 42.93758 2.94265 6659 ft 281 kts 128°
2026-05-07 13:15 42.92564 2.96376 6311 ft 281 kts 128°
2026-05-07 13:16 42.91371 2.98485 5983 ft 280 kts 128°
2026-05-07 13:16 42.90180 3.00593 5668 ft 280 kts 128°
2026-05-07 13:16 42.88991 3.02681 5331 ft 277 kts 130°
2026-05-07 13:16 42.87512 3.04271 4931 ft 270 kts 158°
2026-05-07 13:17 42.85749 3.05029 4609 ft 263 kts 165°
2026-05-07 13:17 42.84007 3.05683 4407 ft 254 kts 165°
2026-05-07 13:17 42.82335 3.06311 4423 ft 248 kts 165°
2026-05-07 13:17 42.80680 3.06930 4402 ft 246 kts 165°
2026-05-07 13:18 42.79056 3.07531 4401 ft 244 kts 165°
2026-05-07 13:18 42.77419 3.08139 4403 ft 243 kts 165°
2026-05-07 13:18 42.75772 3.08752 4408 ft 241 kts 165°
2026-05-07 13:18 42.74195 3.09338 4385 ft 234 kts 165°
2026-05-07 13:19 42.72664 3.09904 4356 ft 221 kts 165°
2026-05-07 13:19 42.71200 3.10446 4243 ft 214 kts 165°
2026-05-07 13:19 42.69764 3.10975 4157 ft 213 kts 166°
2026-05-07 13:19 42.68300 3.11020 3997 ft 212 kts 193°
2026-05-07 13:20 42.66866 3.10564 3868 ft 211 kts 192°
2026-05-07 13:20 42.65456 3.10149 3722 ft 203 kts 192°
2026-05-07 13:20 42.64094 3.09748 3557 ft 199 kts 192°
2026-05-07 13:20 42.62833 3.09014 3383 ft 200 kts 220°
2026-05-07 13:21 42.61829 3.07719 3243 ft 199 kts 223°
2026-05-07 13:21 42.60862 3.06400 2992 ft 195 kts 236°
2026-05-07 13:21 42.60380 3.04708 2796 ft 191 kts 253°
2026-05-07 13:21 42.59985 3.02969 2737 ft 192 kts 251°
2026-05-07 13:22 42.59607 3.01225 2685 ft 189 kts 260°
2026-05-07 13:22 42.59847 2.99606 2683 ft 177 kts 309°
2026-05-07 13:22 42.60814 2.98541 2703 ft 183 kts 325°
2026-05-07 13:22 42.61874 2.97580 2700 ft 182 kts 328°
2026-05-07 13:23 42.62935 2.96672 2593 ft 180 kts 328°
2026-05-07 13:23 42.64012 2.95762 2347 ft 182 kts 328°
2026-05-07 13:23 42.65082 2.94861 2107 ft 178 kts 329°
2026-05-07 13:23 42.66093 2.94011 1884 ft 163 kts 329°
2026-05-07 13:24 42.67032 2.93222 1683 ft 157 kts 329°
2026-05-07 13:24 42.67949 2.92449 1458 ft 153 kts 329°
2026-05-07 13:24 42.68854 2.91676 1279 ft 156 kts 328°
2026-05-07 13:24 42.69770 2.90888 1094 ft 156 kts 329°
2026-05-07 13:25 42.70694 2.90127 886 ft 154 kts 330°
2026-05-07 13:25 42.71606 2.89362 667 ft 154 kts 330°
2026-05-07 13:25 42.72516 2.88591 442 ft 151 kts 329°
2026-05-07 13:25 42.73405 2.87840 223 ft 150 kts 329°
2026-05-07 13:26 42.73981 2.87364 160 ft 140 kts 329°
2026-05-07 13:26 42.74709 2.86764 152 ft 95 kts 328°
2026-05-07 13:26 42.75092 2.86439 152 ft 39 kts 328°
2026-05-07 13:26 42.75186 2.86265 151 ft 23 kts 252°
2026-05-07 13:27 42.75060 2.86227 150 ft 20 kts 149°
2026-05-07 13:27 42.74944 2.86323 149 ft 19 kts 155°
2026-05-07 13:27 42.74825 2.86399 149 ft 19 kts 148°
2026-05-07 13:27 42.74717 2.86490 149 ft 18 kts 148°
2026-05-07 13:28 42.74613 2.86578 149 ft 17 kts 150°
2026-05-07 13:28 42.74513 2.86662 149 ft 17 kts 147°
2026-05-07 13:28 42.74417 2.86742 149 ft 16 kts 148°
2026-05-07 13:28 42.74324 2.86821 149 ft 15 kts 148°
2026-05-07 13:29 42.74235 2.86898 149 ft 15 kts 143°
2026-05-07 13:29 42.74158 2.86985 149 ft 14 kts 148°
2026-05-07 13:29 42.74072 2.87056 149 ft 15 kts 149°
2026-05-07 13:29 42.73995 2.87090 149 ft 12 kts 212°
2026-05-07 13:30 42.73964 2.86993 149 ft 11 kts 257°
2026-05-07 13:30 42.73951 2.86894 149 ft 8 kts 263°
2026-05-07 13:30 42.73979 2.86871 149 ft 5 kts 359°
2026-05-07 13:30 42.74010 2.86866 149 ft 2 kts 350°
2026-05-07 13:31 42.74011 2.86866 149 ft 0 kts 350°